Regional Weather Roundup
Issued by NWS

Home | Current Version | Previous Version | Graphics & Text | Print | Product List | Glossary Off
Versions: 1 2 3 4 5 6 7 8 9 10 11 12 13 14 15 16 17 18 19 20 21 22 23 24 25 26 27 28 29 30 31 32 33 34 35 36 37 38 39 40 41 42 43 44 45 46 47 48 49 50

161
ASUS43 KDMX 020203
RWRIA

WEATHER ROUNDUP FOR IOWA
NATIONAL WEATHER SERVICE DES MOINES IA
900 PM CDT SUN MAY 01 2016

NOTE: "FAIR" INDICATES FEW OR NO CLOUDS BELOW 12,000 FEET WITH NO
SIGNIFICANT WEATHER AND/OR OBSTRUCTIONS TO VISIBILITY.

* - THESE STATIONS ARE NOT NWS STATIONS...THUS NOT UNDER NWS
QUALITY CONTROL.  THEY ALSO DO NOT REPORT WEATHER SUCH
AS PRECIPITATION OR FOG.

IAZ001>003-012>014-020>022-031>034-043>046-020300-
   NORTHWEST IOWA

CITY           SKY/WX    TMP DP  RH WIND       PRES   REMARKS
CARROLL *      MOCLDY    48  46  93 CALM      30.12R
CHEROKEE *     PTCLDY    47  42  84 CALM      30.13R
DENISON *      CLOUDY    48 N/A N/A CALM      30.11R
LE MARS *      CLOUDY    50  43  76 CALM      30.15R
ORANGE CITY *  MOCLDY    48  43  81 CALM      30.14R
SHELDON *      CLEAR     48  43  81 N6        30.12R
SIOUX CITY     CLOUDY    50  43  77 NW5       30.16R
SPENCER        CLEAR     48  39  71 N8        30.12R
STORM LAKE *   MOCLDY    48  43  81 N8        30.12R
$$

IAZ055>058-069>071-079>083-090>094-020300-
   SOUTHWEST IOWA

CITY           SKY/WX    TMP DP  RH WIND       PRES   REMARKS
ATLANTIC *     CLOUDY    48  45  87 NW3       30.13R
AUDUBON *      CLOUDY    48  45  87 CALM      30.14R
CLARINDA *       N/A    N/A N/A N/A MISG        N/A
COUNCIL BLFS * CLOUDY    46  45  93 W3        30.15R
CRESTON *      CLOUDY    46  45  93 N6        30.13R
HARLAN  *      CLOUDY    48  46  93 W5        30.17R
LAMONI         CLOUDY    47  44  90 NW8       30.09R
RED OAK *      CLOUDY    48  45  87 MISG      30.15R
SHENANDOAH *   CLOUDY    48  46  93 N10       30.15R
$$

IAZ047>049-059>061-072>074-084-020300-
   CENTRAL IOWA

CITY           SKY/WX    TMP DP  RH WIND       PRES   REMARKS
AMES           CLOUDY    49  45  86 N5        30.10R
ANKENY *       CLOUDY    48  48 100 N5        30.09R
BOONE *        CLOUDY    48  46  93 NE7       30.08S
CHARITON *     LGT RAIN  46  46 100 N6        30.08R
DES MOINES     CLOUDY    49  44  83 N6        30.09R
GRINNELL*      CLOUDY    48  46  93 N7        30.07R
KNOXVILLE *    CLOUDY    48  45  87 N6        30.07R
MARSHALLTOWN   CLOUDY    47  45  93 N8        30.08R
NEWTON *       CLOUDY    48  48 100 NE9       30.08R
PELLA *        CLOUDY    48  46  90 CALM      30.09R
$$

IAZ004>006-015-016-023>025-035-036-020300-
   NORTH CENTRAL IOWA

CITY           SKY/WX    TMP DP  RH WIND       PRES   REMARKS
ALGONA *       CLOUDY    52  41  66 CALM      30.11R
CLARION *      MOCLDY    46  46 100 NE6       30.10R
ESTHERVILLE    CLOUDY    50  41  71 N12       30.11R
FORT DODGE *   CLOUDY    48  41  76 CALM      30.11R
MASON CITY     CLEAR     46  42  86 NE8       30.11R
FOREST CITY *  CLOUDY    48  41  76 CALM      30.09S
WEBSTER CITY * PTCLDY    46  45  93 E7        30.08R
IOWA FALLS *     N/A     48  45  87 N5        30.10R
$$

IAZ007>011-017>019-026>030-037>042-050>054-066-020300-
   NORTHEAST IOWA

CITY           SKY/WX    TMP DP  RH WIND       PRES   REMARKS
CEDAR RAPIDS   CLOUDY    48  47  96 N10       30.04S
CHARLES CITY * PTCLDY    46  46 100 NE5       30.08S
CLINTON *      MOCLDY    47  47 100 N9        30.03R FOG
DECORAH *      CLOUDY    46  46 100 CALM      30.06F
DUBUQUE        CLOUDY    47  45  93 N10       30.03S
MONTICELLO *   CLOUDY    48  46  93 N9        30.04R
OELWEIN *      CLEAR     46  45  93 NE9       30.07R
WATERLOO       MOCLDY    47  43  86 N10       30.07R
$$

IAZ064-065-067-068-078-020300-
   EAST CENTRAL IOWA

CITY           SKY/WX    TMP DP  RH WIND       PRES   REMARKS
DAVENPORT      CLOUDY    49  47  93 N7        30.03R FOG
IOWA CITY      CLOUDY    49  47  93 N7        30.06R FOG
MT. PLEASANT * CLOUDY    52  52 100 N6        30.04R
MUSCATINE *    RAIN      50  48  93 NW6       30.05R
QUAD CITIES    CLOUDY    50  47  89 NW6       30.02R
$$

IAZ062-063-075>077-085>089-095>099-020300-
   SOUTHEAST IOWA

CITY           SKY/WX    TMP DP  RH WIND       PRES   REMARKS
BURLINGTON     CLOUDY    50  49  96 NW7       30.02R
FAIRFIELD *    CLOUDY    48  48 100 N9        30.05S
FORT MADISON * CLOUDY    48  48 100 NW6       30.04R
KEOKUK *       CLOUDY    50  48  93 NW7       30.02S
OSKALOOSA *    CLOUDY    46  46 100 N7        30.07R
OTTUMWA        CLOUDY    47  47 100 N9        30.06R FOG
WASHINGTON *   CLOUDY    48  48 100 N7        30.06S FOG
$$

ABBREVIATIONS USED IN REMARKS
   TC - TEMPERATURES IN CELSIUS
  WCI - WIND CHILL INDEX
   HX - HEAT INDEX
  VSB - VISIBILITY
$$





USA.gov is the U.S. government's official web portal to all federal, state and local government web resources and services.